Location: Bern�tre
(50.1974°N, 2.0915°E)
Time: 06:23:26
(UTC+00:00)

Resurs 01 Rocket - Pass Details

Date: 18 September 2020
Orbit: 633 x 645 km, 98.0° (Epoch: 22 October)

Event Time Altitude Azimuth Distance (km) Brightness Sun altitude
Exits shadow 19:19:16 21° 100° (E) 1,457 2.8 -13.6°
Maximum altitude 19:21:02 27° 64° (ENE) 1,237 2.7 -13.9°
Drops below altitude 10° 19:24:48 10° 6° (N) 2,054 4.4 -14.4°
Sets 19:27:16 0° 355° (N) 2,967 5.4 -14.8°
